Location: Foots Cray
(51.4000°N, 0.1167°E)
Time: 22:43:29
(UTC+00:00)

Nadezhda 4 Rocket - Pass Details

Date: 15 May 2026
Orbit: 948 x 992 km, 82.9° (Epoch: 6 June)

Event Time Altitude Azimuth Distance (km) Brightness Sun altitude
Rises 22:06:50 0° 347° (NNW) 3,633 8.6 -15.6°
Reaches altitude 10° 22:09:22 10° 343° (NNW) 2,684 7.6 -15.8°
Maximum altitude 22:15:20 57° 268° (W) 1,118 4.4 -16.2°
Enters shadow 22:20:01 17° 194° (SSW) 2,218 5.4 -16.5°
